Location: *
(44.3925°N, 5.4708°E)
Time: 04:32:51
(UTC+00:00)

Cosmos 2237 Rocket - Pass Details

Date: 18 September 2019
Orbit: 833 x 851 km, 71.0° (Epoch: 18 October)

Event Time Altitude Azimuth Distance (km) Brightness Sun altitude
Rises 19:42:14 0° 333° (NNW) 3,424 6.2 -21.2°
Reaches altitude 10° 19:44:42 10° 332° (NNW) 2,486 5.4 -21.6°
Maximum altitude 19:50:25 79° 247° (WSW) 872 2.2 -22.6°
Enters shadow 19:52:42 38° 167° (SSE) 1,280 2.8 -22.9°
